Radiation Dose at Monitoring Post of Fukushima Daini Nuclear Power Station
Date,Time,MP-1(microSv/h),MP-2(microSv/h),MP-3(microSv/h),MP-4(microSv/h),MP-5(microSv/h),MP-6(microSv/h),MP-7(microSv/h),Wind Direction,Wind Velocity(m/s),Rain
2018/10/07,00:00,0.302,0.189,0.307,0.297,0.279,0.153,0.093,south,12.5,No
2018/10/07,00:10,0.305,0.188,0.305,0.296,0.283,0.153,0.093,south,10.9,No
2018/10/07,00:20,0.301,0.188,0.306,0.293,0.281,0.153,0.093,south-southwest,7.0,No
2018/10/07,00:30,0.299,0.190,0.308,0.297,0.278,0.153,0.092,south,8.8,No
2018/10/07,00:40,0.304,0.191,0.305,0.295,0.283,0.154,0.093,south,9.5,No
2018/10/07,00:50,0.303,0.188,0.305,0.294,0.282,0.153,0.094,south,10.9,No
2018/10/07,01:00,0.302,0.189,0.307,0.295,0.279,0.152,0.093,south,10.6,No
2018/10/07,01:10,0.301,0.189,0.307,0.298,0.280,0.153,0.093,south,11.7,No
2018/10/07,01:20,0.303,0.187,0.304,0.295,0.282,0.153,0.093,south,10.1,No
2018/10/07,01:30,0.302,0.189,0.306,0.294,0.281,0.152,0.093,south-southwest,12.5,No
2018/10/07,01:40,0.300,0.189,0.308,0.296,0.278,0.153,0.093,south,9.6,No
2018/10/07,01:50,0.304,0.189,0.305,0.297,0.282,0.154,0.093,south-southwest,10.4,No
2018/10/07,02:00,0.303,0.189,0.304,0.292,0.282,0.153,0.094,south,11.2,No
2018/10/07,02:10,0.299,0.190,0.308,0.294,0.278,0.152,0.094,south,11.1,No
2018/10/07,02:20,0.303,0.189,0.305,0.298,0.280,0.153,0.093,south-southwest,12.6,No
2018/10/07,02:30,0.304,0.188,0.303,0.295,0.282,0.153,0.093,south,13.2,No
2018/10/07,02:40,0.300,0.190,0.308,0.294,0.279,0.153,0.093,south,13.4,No
2018/10/07,02:50,0.301,0.189,0.307,0.297,0.278,0.153,0.093,south,14.7,No
2018/10/07,03:00,0.304,0.189,0.305,0.295,0.282,0.153,0.094,south,15.1,No
2018/10/07,03:10,0.303,0.189,0.306,0.293,0.280,0.152,0.094,south,14.2,No
2018/10/07,03:20,0.300,0.189,0.307,0.298,0.278,0.153,0.093,south,14.6,No
2018/10/07,03:30,0.305,0.188,0.305,0.295,0.284,0.153,0.093,south,15.7,No
2018/10/07,03:40,0.303,0.191,0.307,0.294,0.281,0.154,0.093,south,14.5,No
2018/10/07,03:50,0.302,0.189,0.307,0.296,0.278,0.152,0.093,south,14.0,No
2018/10/07,04:00,0.302,0.189,0.305,0.297,0.282,0.154,0.093,south-southwest,13.6,No
2018/10/07,04:10,0.304,0.191,0.308,0.295,0.282,0.153,0.094,south-southwest,12.6,No
2018/10/07,04:20,0.301,0.188,0.308,0.296,0.278,0.153,0.093,south-southwest,9.3,No
2018/10/07,04:30,0.305,0.190,0.305,0.298,0.284,0.153,0.094,south-southwest,9.6,No
2018/10/07,04:40,0.304,0.189,0.307,0.295,0.282,0.154,0.093,southwest,2.5,No
2018/10/07,04:50,0.301,0.188,0.306,0.294,0.277,0.152,0.093,northwest,1.1,No
2018/10/07,05:00,0.304,0.190,0.305,0.298,0.281,0.154,0.093,south-southwest,1.0,No
2018/10/07,05:10,0.304,0.189,0.306,0.295,0.282,0.153,0.093,south-southwest,2.9,No
2018/10/07,05:20,0.302,0.188,0.307,0.294,0.279,0.153,0.094,southwest,2.9,No
2018/10/07,05:30,0.302,0.189,0.306,0.296,0.279,0.154,0.093,southwest,2.8,No
2018/10/07,05:40,0.304,0.189,0.305,0.297,0.284,0.153,0.094,south-southwest,3.3,No
2018/10/07,05:50,0.303,0.188,0.309,0.294,0.280,0.153,0.094,south-southwest,5.4,No
2018/10/07,06:00,0.301,0.189,0.307,0.296,0.279,0.153,0.093,south-southwest,4.9,No
2018/10/07,06:10,0.306,0.189,0.306,0.297,0.282,0.154,0.094,south,5.5,No
2018/10/07,06:20,0.302,0.189,0.307,0.294,0.281,0.154,0.093,south-southwest,5.2,No
2018/10/07,06:30,0.300,0.190,0.306,0.296,0.278,0.153,0.093,south-southwest,5.6,No
2018/10/07,06:40,0.305,0.189,0.305,0.297,0.282,0.154,0.093,south-southwest,6.3,No
2018/10/07,06:50,0.302,0.189,0.309,0.294,0.282,0.152,0.092,south,7.1,No
2018/10/07,07:00,0.301,0.189,0.306,0.294,0.279,0.153,0.093,south,6.2,No
2018/10/07,07:10,0.305,0.187,0.304,0.297,0.280,0.154,0.093,south,5.5,No
2018/10/07,07:20,0.304,0.189,0.308,0.296,0.283,0.154,0.093,south-southwest,5.1,No
2018/10/07,07:30,0.300,0.190,0.308,0.294,0.282,0.153,0.094,south-southwest,4.0,No
2018/10/07,07:40,0.305,0.188,0.305,0.294,0.280,0.153,0.093,west,3.5,No
2018/10/07,07:50,0.305,0.189,0.307,0.294,0.277,0.154,0.093,west-southwest,8.1,No
2018/10/07,08:00,0.301,0.190,0.308,0.294,0.281,0.154,0.094,west-southwest,5.8,No
2018/10/07,08:10,0.301,0.189,0.305,0.294,0.283,0.152,0.094,southwest,5.8,No
2018/10/07,08:20,0.305,0.189,0.303,0.294,0.281,0.154,0.094,west-southwest,6.8,No
2018/10/07,08:30,0.303,0.188,0.309,0.298,0.279,0.154,0.095,west-southwest,7.0,No
2018/10/07,08:40,0.302,0.189,0.307,0.298,0.278,0.154,0.094,west-southwest,5.3,No
2018/10/07,08:50,0.300,0.188,0.304,0.297,0.283,0.153,0.094,west,5.3,No
2018/10/07,09:00,0.305,0.188,0.304,0.295,0.283,0.153,0.094,west-southwest,6.4,No
2018/10/07,09:10,0.304,0.188,0.310,0.296,0.281,0.154,0.095,west,7.0,No
2018/10/07,09:20,0.304,0.190,0.305,0.296,0.280,0.153,0.095,west,5.3,No
2018/10/07,09:30,0.303,0.191,0.306,0.296,0.280,0.153,0.094,west,7.1,No
2018/10/07,09:40,0.303,0.189,0.306,0.295,0.280,0.154,0.094,west,5.5,No
2018/10/07,09:50,0.302,0.189,0.309,0.297,0.279,0.153,0.094,west,7.0,No
2018/10/07,10:00,0.303,0.190,0.309,0.297,0.280,0.154,0.095,west,4.2,No
2018/10/07,10:10,0.303,0.190,0.306,0.296,0.281,0.153,0.094,west-southwest,5.5,No
2018/10/07,10:20,0.305,0.190,0.305,0.296,0.281,0.154,0.094,west,7.5,No
2018/10/07,10:30,0.304,0.191,0.307,0.298,0.284,0.154,0.094,west,4.1,No
2018/10/07,10:40,0.304,0.190,0.309,0.296,0.282,0.155,0.094,west-northwest,7.4,No
2018/10/07,10:50,0.304,0.190,0.308,0.296,0.281,0.155,0.094,west,8.8,No
2018/10/07,11:00,0.304,0.190,0.306,0.296,0.282,0.153,0.094,west-northwest,7.3,No
2018/10/07,11:10,0.304,0.191,0.305,0.297,0.281,0.155,0.094,west,6.9,No
2018/10/07,11:20,0.304,0.191,0.305,0.297,0.281,0.153,0.093,west,8.2,No
2018/10/07,11:30,0.304,0.191,0.305,0.297,0.280,0.155,0.095,west,9.0,No
2018/10/07,11:40,0.305,0.191,0.306,0.296,0.282,0.154,0.093,west-northwest,9.0,No
2018/10/07,11:50,0.303,0.190,0.306,0.296,0.283,0.155,0.095,west,8.7,No
2018/10/07,12:00,0.305,0.190,0.305,0.298,0.281,0.154,0.094,west,10.3,No
2018/10/07,12:10,0.304,0.191,0.308,0.298,0.282,0.156,0.094,west-northwest,7.8,No
2018/10/07,12:20,0.304,0.192,0.307,0.297,0.281,0.154,0.094,west,8.1,No
2018/10/07,12:30,0.302,0.190,0.308,0.298,0.281,0.154,0.094,west-northwest,8.9,No
2018/10/07,12:40,0.302,0.190,0.308,0.298,0.282,0.155,0.094,west,5.6,No
2018/10/07,12:50,0.303,0.191,0.307,0.298,0.281,0.155,0.094,west,6.7,No
2018/10/07,13:00,0.304,0.191,0.308,0.298,0.282,0.155,0.095,west,7.4,No
2018/10/07,13:10,0.305,0.191,0.309,0.299,0.281,0.155,0.094,west,8.4,No
2018/10/07,13:20,0.305,0.191,0.309,0.299,0.283,0.154,0.094,west-northwest,5.0,No
2018/10/07,13:30,0.306,0.191,0.310,0.298,0.281,0.155,0.094,west,4.8,No
2018/10/07,13:40,0.305,0.191,0.309,0.298,0.281,0.155,0.094,west,6.9,No
2018/10/07,13:50,0.304,0.191,0.309,0.297,0.280,0.155,0.094,west-northwest,9.2,No
2018/10/07,14:00,0.304,0.190,0.309,0.296,0.283,0.155,0.094,west-northwest,8.7,No
2018/10/07,14:10,0.303,0.191,0.308,0.296,0.283,0.155,0.094,west,7.6,No
2018/10/07,14:20,0.303,0.191,0.307,0.297,0.282,0.155,0.095,west,5.6,No
2018/10/07,14:30,0.303,0.191,0.308,0.296,0.280,0.156,0.095,west,6.4,No
2018/10/07,14:40,0.304,0.191,0.307,0.295,0.281,0.156,0.094,west,5.6,No
2018/10/07,14:50,0.304,0.191,0.306,0.294,0.281,0.154,0.093,west,5.2,No
2018/10/07,15:00,0.303,0.189,0.307,0.297,0.280,0.155,0.094,west,6.0,No
2018/10/07,15:10,0.309,0.190,0.310,0.301,0.280,0.155,0.095,west,6.3,No
2018/10/07,15:20,0.309,0.189,0.311,0.301,0.279,0.154,0.095,west-southwest,7.0,No
2018/10/07,15:30,0.307,0.191,0.308,0.298,0.284,0.155,0.094,west,7.7,No
2018/10/07,15:40,0.303,0.191,0.307,0.297,0.284,0.155,0.093,west,6.9,No
2018/10/07,15:50,0.304,0.191,0.311,0.301,0.283,0.154,0.095,west-northwest,8.5,No
2018/10/07,16:00,0.308,0.190,0.312,0.300,0.280,0.154,0.095,west-northwest,9.0,No
2018/10/07,16:10,0.307,0.192,0.307,0.297,0.282,0.155,0.094,west-northwest,10.4,No
2018/10/07,16:20,0.305,0.191,0.307,0.300,0.283,0.155,0.094,northwest,11.5,No
2018/10/07,16:30,0.306,0.189,0.311,0.302,0.282,0.155,0.095,west-northwest,7.4,No
2018/10/07,16:40,0.308,0.191,0.311,0.299,0.282,0.155,0.094,northwest,7.5,No
2018/10/07,16:50,0.307,0.190,0.308,0.299,0.280,0.154,0.094,north-northwest,7.1,No
2018/10/07,17:00,0.305,0.190,0.311,0.301,0.283,0.155,0.096,northwest,5.2,No
2018/10/07,17:10,0.309,0.192,0.311,0.297,0.285,0.155,0.095,north-northwest,6.9,No
2018/10/07,17:20,0.307,0.192,0.309,0.298,0.282,0.154,0.095,north-northwest,7.5,No
2018/10/07,17:30,0.304,0.191,0.311,0.299,0.286,0.155,0.095,north-northwest,8.2,No
2018/10/07,17:40,0.307,0.193,0.310,0.297,0.284,0.155,0.095,northwest,8.1,No
2018/10/07,17:50,0.306,0.190,0.309,0.300,0.281,0.155,0.094,north-northwest,10.1,No
2018/10/07,18:00,0.304,0.192,0.311,0.300,0.286,0.155,0.094,northwest,9.0,No
2018/10/07,18:10,0.307,0.191,0.310,0.298,0.283,0.155,0.094,north,7.0,No
2018/10/07,18:20,0.306,0.191,0.308,0.301,0.283,0.155,0.095,north-northwest,9.0,No
2018/10/07,18:30,0.305,0.192,0.312,0.298,0.285,0.156,0.094,northwest,9.2,No
2018/10/07,18:40,0.308,0.191,0.309,0.298,0.282,0.155,0.094,north-northwest,7.7,No
2018/10/07,18:50,0.307,0.191,0.309,0.302,0.285,0.156,0.095,north-northwest,8.1,No
2018/10/07,19:00,0.306,0.190,0.311,0.298,0.283,0.156,0.095,north-northwest,8.8,No
2018/10/07,19:10,0.309,0.190,0.308,0.299,0.282,0.154,0.095,north-northwest,8.2,No
2018/10/07,19:20,0.305,0.191,0.311,0.300,0.285,0.155,0.095,north-northwest,6.2,No
2018/10/07,19:30,0.306,0.191,0.311,0.297,0.284,0.154,0.095,north,5.5,No
2018/10/07,19:40,0.309,0.193,0.308,0.300,0.284,0.156,0.095,north,3.0,No
2018/10/07,19:50,0.306,0.191,0.311,0.297,0.285,0.155,0.095,north-northwest,0.7,No
2018/10/07,20:00,0.308,0.193,0.308,0.299,0.283,0.154,0.094,north,1.7,No
2018/10/07,20:10,0.307,0.191,0.312,0.299,0.285,0.156,0.095,north-northeast,2.9,No
2018/10/07,20:20,0.307,0.192,0.308,0.299,0.282,0.155,0.094,north,4.4,No
2018/10/07,20:30,0.307,0.191,0.311,0.299,0.284,0.156,0.094,north-northwest,4.2,No
2018/10/07,20:40,0.305,0.192,0.310,0.298,0.282,0.154,0.095,north,4.4,No
2018/10/07,20:50,0.307,0.193,0.310,0.302,0.286,0.155,0.095,north,4.6,No
2018/10/07,21:00,0.305,0.192,0.310,0.299,0.282,0.155,0.094,north,3.9,No
2018/10/07,21:10,0.307,0.191,0.310,0.300,0.285,0.155,0.094,north,7.4,No
2018/10/07,21:20,0.306,0.191,0.311,0.298,0.281,0.155,0.095,north,6.9,No
2018/10/07,21:30,0.309,0.192,0.310,0.301,0.284,0.154,0.094,north-northwest,6.8,No
2018/10/07,21:40,0.307,0.192,0.312,0.297,0.282,0.155,0.094,north-northwest,8.2,No
2018/10/07,21:50,0.309,0.190,0.312,0.300,0.284,0.156,0.095,north-northwest,8.1,No
2018/10/07,22:00,0.307,0.192,0.310,0.299,0.282,0.155,0.096,north-northwest,6.4,No
2018/10/07,22:10,0.308,0.191,0.310,0.301,0.285,0.155,0.096,north-northwest,7.3,No
2018/10/07,22:20,0.306,0.192,0.313,0.299,0.283,0.155,0.095,north,8.5,No
2018/10/07,22:30,0.306,0.192,0.310,0.301,0.285,0.155,0.095,north,7.0,No
2018/10/07,22:40,0.307,0.193,0.312,0.299,0.282,0.156,0.095,north-northwest,4.7,No
2018/10/07,22:50,0.307,0.191,0.309,0.301,0.285,0.155,0.094,north-northwest,9.3,No
2018/10/07,23:00,0.308,0.192,0.312,0.299,0.283,0.155,0.095,north-northwest,8.1,No
2018/10/07,23:10,0.307,0.191,0.309,0.301,0.284,0.155,0.094,north,5.7,No
2018/10/07,23:20,0.308,0.192,0.312,0.299,0.282,0.156,0.095,north,7.7,No
2018/10/07,23:30,0.305,0.191,0.309,0.301,0.282,0.155,0.094,north,6.1,No
2018/10/07,23:40,0.308,0.192,0.312,0.298,0.284,0.155,0.095,north-northwest,5.9,No
2018/10/07,23:50,0.307,0.190,0.311,0.301,0.284,0.155,0.095,north,6.4,No
